Location: Casa Montesecco
(43.5333°N, 13.2000°E)
Time: 05:26:12
(UTC+00:00)

Daily predictions for brighter satellites

Satellite Brightness Start Highest point End
(mag) Time Altitude Azimuth Time Altitude Azimuth Time Altitude Azimuth
SJ 16-02 3.9 00:03:06 13° E 00:03:06 13° E 00:04:38 10° ENE
SL-16 R/B 4.1 00:04:55 10° N 00:09:36 25° NE 00:14:15 10° ESE
Cosmos 1777 Rocket 4.3 00:12:23 61° ENE 00:12:23 61° ENE 00:17:02 10° NNE
Cosmos 1025 Rocket 4.2 00:09:23 10° N 00:12:13 40° N 00:12:13 40° N
NOSS 0 Rocket 3.8 00:09:33 10° NNW 00:15:49 84° WSW 00:15:54 84° SW
CZ-2D R/B 3.0 00:11:08 10° NNE 00:16:19 40° E 00:16:30 40° ESE
Lacrosse 4 Rocket 3.5 00:17:22 20° NW 00:17:22 20° NW 00:20:21 10° N
COSMOS 2428 3.5 00:12:46 10° NW 00:16:52 39° WNW 00:16:52 39° WNW
GEOS 3 Rocket 3.6 00:12:49 10° NE 00:18:01 82° NE 00:18:01 82° NE
ADEOS II 4.1 00:15:50 10° NE 00:19:14 17° E 00:20:30 16° ESE
Cosmos 2360 Rocket 4.5 00:16:53 10° WNW 00:17:41 12° WNW 00:17:41 12° WNW
Cosmos 2026 Rocket 4.0 00:22:53 10° N 00:28:59 71° E 00:29:55 61° SE
Cosmos 1536 Rocket 4.4 00:25:09 10° N 00:28:12 45° N 00:28:12 45° N
Cosmos 2297 Rocket 2.2 00:30:53 73° ESE 00:30:53 73° ESE 00:36:30 10° NNE
Cosmos 1634 Rocket 3.9 00:31:21 68° SSE 00:32:05 77° E 00:38:19 10° N
Cosmos 2219 3.0 00:32:41 87° ESE 00:32:41 87° ESE 00:38:19 10° NNE
Cosmos 1627 Rocket 4.4 00:27:22 10° N 00:33:33 81° E 00:34:25 67° SSE
Cosmos 1980 3.6 00:29:15 10° NNW 00:34:49 82° W 00:34:49 82° W
Cosmos 2333 Rocket 3.8 00:32:51 10° NW 00:35:43 22° WNW 00:35:43 22° WNW
MOZ.5/SAFIR/RUBIN 5/SL-8 4.0 00:38:18 68° NNW 00:38:18 68° NNW 00:42:28 10° NNW
Cosmos 1626 4.1 00:38:59 10° NNE 00:42:02 24° ENE 00:42:04 24° ENE
Cosmos 2237 Rocket 2.1 00:39:05 10° NNW 00:44:32 73° W 00:44:32 73° W
Helios 1B rocket 4.4 00:51:11 10° NNW 00:53:28 20° NW 00:53:28 20° NW
Cosmos 1538 Rocket 4.2 00:55:29 10° NNW 00:59:58 56° WNW 00:59:58 56° WNW
SL-16 R/B 2.4 00:59:59 58° S 01:01:14 75° WSW 01:07:32 10° NNW
COBE Rocket 4.4 01:00:26 40° ESE 01:01:37 51° ENE 01:06:07 10° N
USA 215 3.4 00:58:46 10° NE 01:05:15 61° SE 01:06:48 49° S
Cosmos 1428 Rocket 4.5 01:01:31 10° NNW 01:07:41 64° W 01:08:44 55° SW
Cosmos 1092 Rocket 4.5 01:06:33 10° NNW 01:12:18 40° W 01:12:41 40° W
Cosmos 1805 3.9 01:13:32 48° NNW 01:13:32 48° NNW 01:16:34 10° N
Resurs 1-4 Rocket 2.1 01:08:34 10° N 01:13:48 64° WNW 01:14:25 59° WSW
Okean 1 Rocket 3.5 01:18:56 47° WNW 01:18:56 47° WNW 01:22:45 10° N
Meteor 1-15 Rocket 4.4 01:17:58 49° WSW 01:18:43 53° WNW 01:24:13 10° N
SL-14 R/B 3.5 01:15:25 10° N 01:19:19 62° E 01:19:22 62° E
Cosmos 2227 Rocket 2.4 01:19:04 48° W 01:20:08 56° WNW 01:25:44 10° NNE
Cosmos 1674 4.3 01:19:44 10° NNW 01:21:38 25° NW 01:21:38 25° NW
Cosmos 1655 Rocket 4.0 01:18:35 10° N 01:24:53 81° E 01:28:01 32° SSE
Cosmos 2112 Rocket 4.3 01:20:48 10° NNW 01:26:01 65° ENE 01:29:34 20° SE
UNK 4.4 01:27:34 39° WNW 01:27:34 39° WNW 01:31:22 10° NNW
Cosmos 1733 3.6 01:27:32 53° NW 01:27:32 53° NW 01:30:47 10° N
AQUA 3.8 01:23:27 10° N 01:28:12 66° WNW 01:28:45 60° WSW
Cosmos 1937 Rocket 4.2 01:29:32 33° SSE 01:31:29 48° ESE 01:36:35 10° NNE
CBERS-1 3.9 01:27:45 10° NNE 01:32:54 87° ESE 01:34:16 50° S
Cosmos 1758 4.2 01:34:06 36° SE 01:35:08 45° E 01:38:59 10° NNE
NOSS 3-1 (C) 3.4 01:33:35 42° S 01:35:15 61° ESE 01:41:19 10° NE
USA 267 4.1 01:30:41 10° ESE 01:36:57 51° NNE 01:43:14 10° NW
Cosmos 1898 Rocket 3.5 01:35:45 45° S 01:37:19 74° ESE 01:42:33 10° NNE
ARIANE 5 R/B 3.3 01:34:50 10° NNE 01:39:53 48° E 01:42:41 25° SSE
SJ 16-02 1.4 01:40:06 55° W 01:40:33 59° WNW 01:44:56 10° NNE
Cosmos 2082 3.8 01:39:45 45° SW 01:41:22 65° WNW 01:46:58 10° NNE
Meteor 2-19 Rocket 4.4 01:35:44 10° NNW 01:41:53 73° W 01:44:42 34° S
ATLAS 3B CENTAUR R/B 4.2 01:40:21 30° SSW 01:42:38 32° SSW 01:49:10 10° SE
Cosmos 1726 3.8 01:41:51 21° SE 01:43:25 28° E 01:46:37 10° NNE
Cosmos 1680 Rocket 3.3 01:38:15 10° NNW 01:43:30 77° WSW 01:45:53 33° S
Cosmos 990 Rocket 3.9 01:44:13 46° SSW 01:45:48 86° WNW 01:51:00 10° NNE
IDEFIX/ARIANE 42P 3.7 01:44:24 10° NNE 01:49:15 38° E 01:53:08 15° SSE
Cosmos 1340 Rocket 2.9 01:48:30 49° SSE 01:49:26 71° E 01:53:24 10° NNE
DNEPR-1 R/B 4.2 01:44:36 10° NW 01:49:48 43° WSW 01:49:48 43° WSW
Cosmos 1455 Rocket 3.0 01:51:23 52° SSW 01:52:23 75° W 01:56:51 10° N
SL-08 R/B 3.5 01:49:37 19° SSE 01:53:13 78° ENE 01:58:11 10° N
Cosmos 1461 3.0 01:52:47 52° WSW 01:53:45 71° NW 01:58:17 10° NNE
SL-16 R/B 2.2 01:48:31 10° NNW 01:54:05 56° WSW 01:56:45 30° S
Cosmos 1626 Rocket 4.4 01:50:23 10° N 01:54:35 48° ENE 01:58:29 12° SSE
SL-4 R/B 1.4 01:54:33 53° NW 01:55:17 88° NE 01:58:40 10° ESE
OPS 8737 4.3 01:55:16 70° W 01:55:33 76° NW 01:58:39 10° NNE
CZ-2D R/B 3.3 01:51:29 10° N 01:56:11 30° WNW 01:57:49 25° W
IRS-1D 3.7 01:51:53 10° N 01:56:49 55° WNW 01:58:31 38° SW
Meteor 1-24 Rocket 3.8 01:51:54 10° NNW 01:57:10 50° W 01:58:47 37° SW
Cosmos 1953 3.5 01:55:00 20° SSE 01:57:16 40° E 02:01:03 10° NNE
ADEOS II 2.2 01:54:10 10° N 01:59:22 63° WNW 02:01:26 36° SW
CZ-2D R/B 4.1 01:58:16 10° NNE 02:02:12 48° E 02:04:19 24° SSE
Cosmos 1892 Rocket 3.9 01:58:00 10° NNW 02:02:16 45° W 02:03:00 41° WSW
CZ-4B R/B 3.9 01:58:05 10° N 02:02:33 41° WNW 02:03:51 33° WSW
Meteor 2-5 Rocket 4.4 01:59:52 10° NNW 02:04:50 33° W 02:05:59 30° WSW
Meteor 2-10 4.4 02:03:54 20° S 02:07:43 67° E 02:13:18 10° NNE
USA 229 DEB 3.6 02:05:21 30° SSW 02:08:54 88° SE 02:15:47 10° NE
USA 229 3.6 02:05:27 30° SSW 02:08:59 88° SE 02:15:51 10° NE
Cosmos 2263 Rocket 2.6 02:07:55 21° S 02:11:32 57° ESE 02:17:00 10° NNE
IRS-1C 4.2 02:08:24 10° N 02:13:43 66° WNW 02:16:32 28° SSW
Cosmos 158 Rocket 4.5 02:08:53 10° NW 02:13:54 41° WSW 02:16:10 28° SSW
Cosmos 2297 Rocket 3.9 02:12:41 15° W 02:15:30 20° NW 02:19:40 10° N
Cosmos 1626 3.7 02:14:16 10° NW 02:16:34 21° WNW 02:16:34 21° WNW
NOSS 2-3 (C) 3.7 02:17:45 31° SSW 02:19:46 73° ESE 02:24:38 10° NE
NOSS 3-1 (A) 3.3 02:16:55 26° SSW 02:20:05 78° ESE 02:26:21 10° NE
Cosmos 2098 Rocket 4.0 02:16:35 10° NNW 02:21:23 47° W 02:25:09 21° SSW
Meteor 1-28 Rocket 3.3 02:20:46 32° SSW 02:22:12 53° W 02:25:57 10° NNW
H-2A R/B 2.5 02:25:04 10° SSE 02:29:07 60° ENE 02:33:10 10° N
Timation 1 Rocket 4.4 02:26:52 24° SW 02:30:35 68° WNW 02:36:33 10° NNE
Cosmos 1470 3.8 02:32:06 25° WSW 02:33:13 29° WNW 02:36:43 10° NNW
Cosmos 1603 3.8 02:28:03 10° NNW 02:33:50 85° ENE 02:39:32 10° SSE
Cosmos 1544 Rocket 4.4 02:37:12 23° WSW 02:39:11 34° WNW 02:43:16 10° N
SeaSat 1 3.1 02:35:04 10° NE 02:39:55 53° ESE 02:44:41 10° S
Spot 4 Rocket 4.1 02:40:24 10° N 02:45:31 63° WNW 02:49:45 15° SSW
SL-16 R/B 4.3 02:45:05 11° W 02:45:48 11° W 02:47:38 10° WNW
USA 215 3.9 02:41:54 10° NE 02:48:09 49° NNW 02:54:08 11° W
FALCON 9 DEB 3.0 02:46:24 10° WNW 02:49:52 65° SW 02:53:17 10° SE
Cosmos 1553 Rocket 4.0 02:47:37 10° S 02:53:41 83° E 02:59:48 10° N
Cosmos 1048 Rocket 4.5 02:49:19 10° NNW 02:54:25 63° ENE 02:59:32 10° SSE
Cosmos 1602 Rocket 3.9 02:55:43 10° NNW 02:59:50 42° W 03:03:54 10° SSW
Cosmos 1943 3.1 02:54:21 10° NNW 02:59:58 72° WSW 03:05:33 10° SSE
Cosmos 1606 Rocket 3.9 02:57:10 10° S 03:01:36 69° E 03:06:04 10° NNE
Cosmos 1745 Rocket 4.3 02:58:33 10° N 03:04:53 74° E 03:11:05 10° SSE
Cosmos 2227 Rocket 4.4 03:03:44 10° WNW 03:05:32 11° NW 03:07:19 10° NNW
Meteor 2-8 Rocket 4.5 02:59:45 10° S 03:05:54 88° W 03:12:04 10° N
OAO 3 Rocket 4.4 03:04:41 13° SW 03:08:11 28° S 03:12:22 10° ESE
Cosmos 2084 4.2 03:07:18 10° SSW 03:11:33 52° ESE 03:15:53 10° NE
ERS-2 2.3 03:10:12 10° S 03:13:43 48° W 03:17:16 10° NNW
MSX 4.0 03:10:45 10° N 03:16:22 56° WNW 03:21:59 10° SSW
Cosmos 468 4.5 03:11:13 10° NNW 03:16:30 79° WSW 03:21:45 10° SSE
CZ-2C R/B 3.5 03:13:53 10° N 03:17:25 34° WNW 03:20:53 10° SW
Cosmos 2150 Rocket 4.1 03:12:34 10° SSW 03:17:40 65° WNW 03:22:52 10° NNE
Cosmos 1726 3.8 03:16:22 11° WSW 03:18:39 18° WNW 03:21:15 10° NNW
ARIANE 5 R/B 3.9 03:14:33 10° NNW 03:18:40 24° WNW 03:22:47 10° WSW
Cosmos 1726 Rocket 3.7 03:14:44 10° S 03:19:11 85° E 03:23:40 10° N
CZ-4B R/B 1.9 03:16:27 10° SSE 03:19:42 60° ENE 03:22:54 10° N
USA 267 3.3 03:13:29 10° SSE 03:19:54 57° SW 03:26:20 10° NW
S3M 4.1 03:14:51 10° S 03:21:14 84° W 03:27:40 10° N
Meteor 1-11 4.3 03:17:42 10° NNW 03:23:30 82° W 03:29:11 10° S
CZ-4C R/B 3.9 03:20:55 10° SSW 03:23:37 25° W 03:26:23 10° NW
IDEFIX/ARIANE 42P 3.6 03:24:16 10° N 03:28:41 29° WNW 03:33:06 10° WSW
PSLV R/B 3.7 03:25:03 10° N 03:29:23 62° WNW 03:33:41 10° SSW
Cosmos 1908 4.1 03:26:39 10° SW 03:30:13 33° WNW 03:33:49 10° N
ADEOS 3.9 03:26:35 10° NNE 03:31:49 73° ESE 03:37:01 10° S
Landsat 5 4.3 03:28:28 10° SSW 03:31:49 27° W 03:35:17 10° NW
Cosmos 1953 4.1 03:31:19 10° WSW 03:33:51 16° WNW 03:36:25 10° NNW
SL-4 R/B 3.4 03:32:50 10° WSW 03:34:20 12° SW 03:35:50 10° SSW
Cosmos 1356 Rocket 3.4 03:30:12 10° SSW 03:34:25 77° WNW 03:38:35 10° N
ATLAS CENTAUR R/B 1.4 03:30:45 10° SSW 03:34:58 84° ESE 03:38:56 10° NE
CZ-2C R/B 2.3 03:31:30 10° N 03:36:03 66° WNW 03:40:37 10° SSW
